IRIDIUM 130 (43073 NORAD) Tracking and Keplerian Element Data

This shows tracking and keplerian element data for the satellite.

Feedback or suggestion? Click here.




ElementValue
Catalog43073
NameIRIDIUM 130
Epoch Orbit425
Epoch Day21.34528911
Epoch Year2018
RAAN164.4899
Inclination86.4007
Eccentricity0.000213
Argument of Perigee90.9242
Mean Anonmoly269.2198
Mean Motion14.34217544
Decay Rate6.2E-07
L11 43073U 17083D 18021.34528911 .00000062 00000-0 14922-4 0 9991
L22 43073 86.4007 164.4899 0002130 90.9242 269.2198 14.34217544 4250

Live tracking and technical data element details for IRIDIUM 130 (NORAD 43073). IRIDIUM 130 can be tracked NOW for your location showing map with azimuth and elevation plus other details from your city location.

Track the satellite on the map from your city or location and see movement details for azimuth, elevation, latitude, longitude, range, height, and movement on the map or in text.







IsCatalogInMostPopularTable: catalog: 43073, numindb: 137
Update: records affected: 1



GetName: 43073 IRIDIUM 130

Hit Count: updated at: Mon, 19 Nov 2018 11:48:13 GMT